Retour au catalogue

THORAD AGENA D DEB

ActifSSO
NORAD 4821·DEBRIS·🇺🇸 United States

Lancé Apr 8, 1970 depuis Vandenberg Space Force Base

Loading…

Prochains Passages (prochaines 24 heures)

TLE

FraisSource: Space-Track

Époque: Sep 14, 2026, 02:06 UTC

1 04821U 70025EC  26257.08810904  .00000163  00000-0  28391-3 0  9997
2 04821 100.0086 303.1213 0009261   8.7973   9.6761 13.59318479788290

Suivez THORAD AGENA D DEB en temps réel avec AllMySat

Download on the App Store